Weather History for Gillette, WY

Change the Weather History Date:

Friday, March 22, 2013

  Actual Average Record
Temperature  
Mean Temperature 22 °F 36 °F  
Max Temperature 30 °F 49 °F 72 °F (1928)
Min Temperature 14 °F 24 °F 1 °F (1965)
Degree Days  
Heating Degree Days 43 29  
Month to date heating degree days 672 690  
Since 1 July heating degree days 5795 6098  
Cooling Degree Days 0 0  
Month to date cooling degree days 0 0  
Year to date cooling degree days 0 0  
Moisture  
Dew Point 19 °F    
Average Humidity 80    
Maximum Humidity 96    
Minimum Humidity 63    
Precipitation  
Precipitation 0.02 in 0.04 in 1.60 in (1933)
Month to date precipitation 0.26 0.62  
Year to date precipitation 1.39 1.40  
Sea Level Pressure  
Sea Level Pressure 29.92 in    
Wind  
Wind Speed 10 mph (NNW)    
Max Wind Speed 22 mph    
Max Gust Speed 25 mph    
Visibility 6 miles    
Events Fog , Snow    
T = Trace of Precipitation, MM = Missing Value Source: NWS Daily Summary

Daily Weather History Graph

Daily Weather History Graph

Search for Another Location

Airport:

Trip Planner

Search our weather history database for the weather conditions in past years. The results will help you decide how hot, cold, wet, or windy it might be!

Date:

Astronomy

Mar. 22, 2013 Rise Set
Actual Time 7:01 AM MDT 7:17 PM MDT
Civil Twilight 6:32 AM MDT 7:46 PM MDT
Nautical Twilight 5:58 AM MDT 8:20 PM MDT
Astronomical Twilight 5:23 AM MDT 8:55 PM MDT
Moon 2:38 PM MDT (3/22) 4:12 AM MDT (3/22)
Length of Visible Light 13h 14m
Length of Day
12h 16m
Waxing Gibbous, 78% of the Moon is Illuminated
Mar 22
Waxing Gibbous
Mar 27
Full
Apr 2
Last Quarter
Apr 10
New
Apr 18
First Quarter

Hourly Weather History & Observations

Time (MDT) Temp. Windchill Dew Point Humidity Pressure Visibility Wind Dir Wind Speed Gust Speed Precip Events Conditions
12:53 AM 23.0 °F - 21.9 °F 96% 29.92 in 10.0 mi Calm Calm - N/A   Mostly Cloudy
1:06 AM 23.0 °F 17.0 °F 21.2 °F 93% 29.82 in 10.0 mi South 4.6 mph - N/A   Mostly Cloudy
1:53 AM 19.0 °F 10.0 °F 17.1 °F 92% 29.92 in 10.0 mi West 6.9 mph - N/A   Clear
2:53 AM 19.0 °F 8.2 °F 15.1 °F 85% 29.92 in 10.0 mi West 9.2 mph - N/A   Clear
3:53 AM 18.0 °F 4.8 °F 14.0 °F 84% 29.91 in 10.0 mi West 12.7 mph - N/A   Clear
4:53 AM 19.9 °F - 12.9 °F 74% 29.90 in 10.0 mi Calm Calm - N/A   Scattered Clouds
5:53 AM 21.0 °F - 12.9 °F 71% 29.90 in 10.0 mi Calm Calm - N/A   Mostly Cloudy
6:53 AM 19.9 °F 7.9 °F 12.0 °F 71% 29.90 in 10.0 mi WNW 11.5 mph - N/A   Overcast
7:53 AM 21.0 °F 16.2 °F 12.9 °F 71% 29.91 in 10.0 mi North 3.5 mph - N/A   Overcast
8:53 AM 24.1 °F 17.0 °F 15.1 °F 69% 29.90 in 10.0 mi NW 5.8 mph - N/A   Overcast
9:15 AM 24.8 °F 14.6 °F 15.8 °F 69% 29.80 in 10.0 mi WNW 10.4 mph - N/A   Overcast
9:48 AM 24.8 °F 15.3 °F 17.6 °F 74% 29.81 in 10.0 mi WNW 9.2 mph - N/A   Overcast
9:53 AM 26.1 °F 15.6 °F 17.1 °F 69% 29.92 in 10.0 mi NW 11.5 mph - N/A   Overcast
10:09 AM 26.6 °F 16.2 °F 17.6 °F 69% 29.80 in 10.0 mi NW 11.5 mph - N/A   Overcast
10:53 AM 27.0 °F 17.3 °F 19.0 °F 72% 29.93 in 10.0 mi NW 10.4 mph - N/A   Overcast
11:00 AM 26.6 °F 16.2 °F 19.4 °F 74% 29.81 in 10.0 mi NW 11.5 mph - N/A   Overcast
11:25 AM 26.6 °F 15.2 °F 19.4 °F 74% 29.81 in 10.0 mi WNW 13.8 mph - N/A   Overcast
11:53 AM 27.0 °F 16.1 °F 19.9 °F 75% 29.91 in 7.0 mi WNW 12.7 mph - N/A   Overcast
12:18 PM 26.6 °F 15.7 °F 21.2 °F 80% 29.82 in 1.8 mi NW 12.7 mph - 0.00 in Snow Light Snow
12:28 PM 26.6 °F 14.7 °F 21.2 °F 80% 29.82 in 1.8 mi NW 15.0 mph - 0.00 in Snow Light Snow
12:37 PM 26.6 °F 15.2 °F 21.2 °F 80% 29.82 in 2.0 mi NW 13.8 mph - 0.00 in Snow Light Snow
12:42 PM 26.6 °F 15.2 °F 21.2 °F 80% 29.82 in 3.0 mi NW 13.8 mph - 0.00 in Snow Light Snow
12:53 PM 26.1 °F 14.5 °F 21.9 °F 84% 29.94 in 2.5 mi WNW 13.8 mph - 0.00 in Snow Light Snow
1:07 PM 26.6 °F 15.7 °F 21.2 °F 80% 29.82 in 1.8 mi NW 12.7 mph - 0.00 in Snow Light Snow
1:14 PM 26.6 °F 14.3 °F 21.2 °F 80% 29.82 in 2.5 mi NNW 16.1 mph - 0.00 in Snow Light Snow
1:29 PM 26.6 °F 13.8 °F 19.4 °F 74% 29.82 in 3.0 mi NW 17.3 mph - 0.00 in   Haze
1:53 PM 27.0 °F 16.7 °F 19.0 °F 72% 29.95 in 8.0 mi North 11.5 mph - 0.00 in   Overcast
2:53 PM 28.9 °F 18.2 °F 21.0 °F 72% 29.94 in 10.0 mi NNW 13.8 mph - N/A   Overcast
3:53 PM 30.0 °F 21.1 °F 21.0 °F 69% 29.95 in 10.0 mi North 10.4 mph - N/A   Overcast
4:53 PM 30.0 °F 20.5 °F 19.0 °F 64% 29.97 in 10.0 mi NNW 11.5 mph - N/A   Scattered Clouds
5:53 PM 27.0 °F 12.8 °F 23.0 °F 85% 30.00 in 7.0 mi North 21.9 mph 25.3 mph N/A   Scattered Clouds
5:58 PM 26.6 °F 13.4 °F 23.0 °F 86% 29.89 in 1.5 mi North 18.4 mph - 0.00 in Snow Light Snow
6:00 PM 26.6 °F 13.1 °F 24.8 °F 93% 29.89 in 0.8 mi North 19.6 mph - 0.00 in Snow Light Snow
6:06 PM 24.8 °F 10.7 °F 23.0 °F 93% 29.89 in 0.2 mi NNE 19.6 mph - 0.01 in Fog , Snow Heavy Snow
6:15 PM 24.8 °F 11.1 °F 23.0 °F 93% 29.90 in 0.5 mi NNE 18.4 mph - 0.02 in Fog , Snow Light Snow
6:17 PM 24.8 °F 11.1 °F 23.0 °F 93% 29.90 in 0.8 mi NNE 18.4 mph - 0.02 in Snow Light Snow
6:25 PM 24.8 °F 11.9 °F 21.2 °F 86% 29.90 in 1.8 mi NNE 16.1 mph - 0.02 in Snow Light Snow
6:32 PM 24.8 °F 11.5 °F 21.2 °F 86% 29.91 in 2.5 mi North 17.3 mph - 0.02 in Snow Light Snow
6:37 PM 24.8 °F 11.1 °F 21.2 °F 86% 29.91 in 3.0 mi NNE 18.4 mph - 0.02 in Snow Light Snow
6:39 PM 24.8 °F 11.1 °F 21.2 °F 86% 29.91 in 2.5 mi NNE 18.4 mph - 0.02 in Snow Light Snow
6:43 PM 24.8 °F 10.7 °F 21.2 °F 86% 29.91 in 1.5 mi NNE 19.6 mph - 0.02 in Snow Light Snow
6:50 PM 23.0 °F 8.7 °F 21.2 °F 93% 29.92 in 1.2 mi NNE 18.4 mph - 0.02 in Snow Light Snow
6:53 PM 23.0 °F 9.2 °F 21.0 °F 92% 30.05 in 2.0 mi NNE 17.3 mph - 0.02 in Snow Light Snow
6:59 PM 23.0 °F 8.3 °F 19.4 °F 86% 29.92 in 5.0 mi NNE 19.6 mph - 0.00 in   Overcast
7:07 PM 23.0 °F 8.3 °F 19.4 °F 86% 29.92 in 3.0 mi NNE 19.6 mph 25.3 mph 0.00 in Snow Light Snow
7:40 PM 21.2 °F 8.3 °F 19.4 °F 93% 29.95 in 10.0 mi NNE 13.8 mph - 0.00 in   Overcast
7:53 PM 21.9 °F 9.2 °F 19.0 °F 89% 30.09 in 10.0 mi NNE 13.8 mph - 0.00 in   Overcast
8:41 PM 21.2 °F 11.7 °F 19.4 °F 93% 29.97 in 5.0 mi NNE 8.1 mph - N/A   Overcast
8:53 PM 19.9 °F 8.6 °F 17.1 °F 89% 30.11 in 6.0 mi North 10.4 mph - 0.00 in   Overcast
9:53 PM 19.9 °F 7.9 °F 18.0 °F 92% 30.13 in 4.0 mi NNE 11.5 mph - 0.00 in Snow Light Snow
10:20 PM 19.4 °F 5.5 °F 17.6 °F 93% 30.01 in 3.0 mi North 15.0 mph - 0.00 in Snow Light Snow
10:53 PM 18.0 °F 6.1 °F 16.0 °F 92% 30.15 in 4.0 mi NNE 10.4 mph - 0.00 in Snow Light Snow
11:48 PM 15.8 °F 7.2 °F 14.0 °F 93% 30.04 in 3.0 mi ENE 5.8 mph - 0.00 in Snow Light Snow
11:53 PM 16.0 °F 8.8 °F 14.0 °F 92% 30.17 in 4.0 mi ENE 4.6 mph - 0.00 in Snow Light Snow